Location: Tel Aviv
(32.0670°N, 34.7670°E)
Time: 00:17:58
(UTC+03:00)

XW-2F - Visible Passes

Search period start: 01 April 2023 00:00
Search period end: 11 April 2023 00:00
Orbit: 458 x 475 km, 97.5° (Epoch: 31 March)

Date Brightness Start Highest point End Pass type
(mag) Time Alt. Az. Time Alt. Az. Time Alt. Az.
01 Apr ? 19:26:06 10° SW 19:28:14 16° W 19:30:22 10° WNW visible
04 Apr ? 19:29:36 10° SW 19:31:30 14° W 19:33:24 10° WNW visible
07 Apr ? 19:32:27 10° SW 19:34:08 13° W 19:35:49 10° WNW visible
10 Apr ? 19:34:39 10° WSW 19:36:10 12° W 19:37:40 10° WNW visible
